Regional Weather Roundup
Issued by NWS Newport/Morehead, NC

Current Version | Previous Version | Graphics & Text | Print | Product List | Glossary Off
Versions: 1 2 3 4 5 6 7 8 9 10 11 12 13 14 15 16 17 18 19 20 21 22 23 24 25 26 27 28 29 30 31 32 33 34 35 36 37 38 39 40 41 42 43 44 45 46 47 48 49 50

000
ASUS42 KMHX 171614
RWRMHX
WEATHER ROUNDUP FOR EASTERN NORTH CAROLINA
NATIONAL WEATHER SERVICE NEWPORT/MOREHEAD CITY NC
1200 PM EDT THU AUG 17 2017

NOTE: "FAIR" INDICATES FEW OR NO CLOUDS BELOW 12,000 FEET
WITH NO SIGNIFICANT WEATHER AND/OR OBSTRUCTIONS TO VISIBILITY

NCZ015>017-031-032-045>047-102-103-171700-
NORTH COAST

CITY           SKY/WX    TMP DP  RH WIND       PRES   REMARKS
EDENTON        SUNNY     87  73  63 CALM      30.06F
ELIZABETH CITY SUNNY     86  76  71 E6        30.06S
KITTY HAWK     SUNNY     81  72  72 CALM      30.05F
MANTEO         SUNNY     82  70  66 E5        30.06F

$$

NCZ045>047-081-094-103-104-171700-
CENTRAL COAST

CITY           SKY/WX    TMP DP  RH WIND       PRES   REMARKS
FRISCO         CLOUDY    83  75  77 SE7       30.07S

$$

NCZ095-097-098-100-101-171700-
SOUTHERN COAST

CITY           SKY/WX    TMP DP  RH WIND       PRES   REMARKS
BEAUFORT       PTSUNNY   86  77  74 S6        30.06S
CEDAR ISLAND   NOT AVBL
JACKSONVILLE   MOSUNNY   88  79  74 SE8       30.04F HX 103
PINEY ISLAND   SUNNY    N/A N/A N/A NE5       30.05F
WILMINGTON     MOSUNNY   89  79  72 SE12      30.04F HX 104


$$

NCZ011>013-027>030-043-044-078>080-089-090>093-098-171700-
COASTAL PLAIN

CITY           SKY/WX    TMP DP  RH WIND       PRES   REMARKS
AHOSKIE          N/A     84  76  76 CALM      30.05S
CLINTON        SUNNY     89  79  73 S5        30.05S HX 104
ELIZABETHTOWN  NOT AVBL
GOLDSBORO      MOSUNNY   90  81  76 S6        30.04S HX 109
GREENVILLE     PTSUNNY   88  73  62 SW5       30.07S
HAVELOCK       PTSUNNY   89  75  63 VRB3      30.06F
KENANSVILLE    PTSUNNY   88  77  70 S3        30.06R HX 100
KINSTON        MOSUNNY   90  73  58 SW3       30.05F
NEW BERN       PTSUNNY   89  75  63 SE6       30.06F
RICHLANDS      MOSUNNY   89  77  67 SE8       30.05F HX 101
ROCKY MOUNT    MOSUNNY   87  78  74 VRB5      30.05F HX 100
WASHINGTON     SUNNY     87  75  67 S5        30.06S
WHITEVILLE     MOSUNNY   90  78  68 CALM      30.03S HX 103

$$

AMZ130-135-150-152-154-156-158-170-250-252-270-ANZ085-086-088-633-658-670-171700-
MARINE OBSERVATIONS

STATION/POSITION TIME  TEMP    WIND        PRES    WAVE   SWELL
                       AIR SEA DIR/SP/G            HT/PER HT/PER
                 (UTC) (F)     (DEG/KT/KT) (MB)    (FT/S) (FT/S)
CHESAPEAKE LIGHT NOT AVBL
64 E VA BEACH    1550   77 79  110/  4/  4 1018.4    2/ 8   2/ 8
DUCK             1536   80 80  110/  5/  5 1017.6
2 E DUCK         1530      79                N/A     2/ 7
OREGON INLET     1536   79 82   60/  5/  8 1017.9
13E OREGON INLT  1548      80                N/A     2/ 7   2/ 7
HATTERAS CG      1536   81 83  360/  3/  4 1018.0
DIAMOND BUOY     1550   79 83   40/  4/  6 1018.0    2/ 7   2/ 7
CAPE LOOKOUT     1600   82     100/  4/  5 1017.8
BEAUFORT LAB     1536   84 82  190/  7/  8 1017.3
30 SE NEW RVR IN 1508   83 84  130/  6/  8 1018.2
30 SE NEW RVR IN 1543      84                N/A     2/ 5
27 SE WRIGHTSVLE 1508   84 84  140/  8/ 10 1017.9
5 SE WRIGHTSVLE  1508   83 83  130/  8/ 12 1017.6
225 S CAPE HAT   1550   83 84  270/ 10/ 12 1018.2    3/ 5   2/ 5
41 SE CHARLESTON 1550      85  240/  6/  8 1017.4    2/ 5   2/ 5

$$



USA.gov is the U.S. government's official web portal to all federal, state and local government web resources and services.